Hourly Data Report for March 20, 2012

BAGOTVILLE A
QUEBEC

48°20'00.000" N
71°00'00.000" W
159.10 m
7060400
71727
YBG

Download Data

Hourly Data (March 2012)
Hourly Data Report for March 20, 2012
TIME
LST
Temp Definition
°C
Dew Point Definition
°C
Rel Hum Definition
%
Precip. Amount Definition
mm

Wind Dir Definition
10's deg

Wind Spd Definition
km/h
Visibility Definition
km
Stn Press Definition
kPa
Hmdx Definition


Wind Chill Definition


Weather Definition


00:00 1.4 -1.9 79   12 4 24.1 100.18     Mostly Cloudy
01:00 1.0 -1.6 83   11 4 24.1 100.15     Mainly Clear
02:00 0.7 -2.0 82   9 6 24.1 100.11     Clear
03:00 0.4 -1.8 85   10 6 24.1 100.08     Clear
04:00 0.3 -1.9 85   16 4 24.1 100.07     Clear
05:00 -0.6 -2.2 89   24 4 24.1 100.13   -2 Clear
06:00 -0.6 -2.2 89   24 6 40.2 100.17   -3 Mainly Clear
07:00 1.2 -0.5 88     0 40.2 100.19     Mainly Clear
08:00 7.7 2.8 71   8 6 40.2 100.19     Clear
09:00 8.1 2.8 69   9 4 40.2 100.21     Clear
10:00 12.5 6.4 66   29 4 40.2 100.14     Mainly Clear
11:00 14.8 6.8 59   32 4 40.2 100.06     Mainly Clear
12:00 17.9 7.7 51   1 9 40.2 100.00     Mainly Clear
13:00 19.1 7.9 48   36 9 40.2 99.93     Mainly Clear
14:00 20.9 8.6 45   33 4 40.2 99.85     Mainly Clear
15:00 22.5 9.9 45   29 17 40.2 99.82     Mainly Clear
16:00 21.6 12.2 55   27 15 40.2 99.84     Mainly Clear
17:00 20.1 13.0 64   27 13 40.2 99.91     Mainly Clear
18:00 18.4 12.9 70   27 9 40.2 99.95     Mainly Clear
19:00 16.8 12.7 77   25 13 24.1 99.98     Mainly Clear
20:00 14.5 11.8 84   25 11 24.1 100.03     Clear
21:00 14.4 11.7 84   25 11 24.1 100.07     Clear
22:00 10.4 8.4 87   12 6 24.1 100.13     Mainly Clear
23:00 9.7 7.4 86   11 9 24.1 100.16     Mainly Clear

Notes on Data Quality.

Legend

  • E = Estimated
  • M = Missing
  • NA = Not Available*
  • [empty] = Indicates an unobserved value
Date modified: